Time,TemperatureF,DewpointF,PressureIn,WindDirection,WindDirectionDegrees,WindSpeedMPH,WindSpeedGustMPH,Humidity,HourlyPrecipIn,Conditions,Clouds,dailyrainin,SoftwareType,DateUTC
2013-04-11 00:00:00,35.9,17.1,30.07,NE,40,0.0,11.0,46,0.00,,---,0.00,VWS V14.01,2013-04-11 05:00:00,
2013-04-11 00:05:00,35.8,17.6,30.07,East,92,0.0,4.0,47,0.00,,---,0.00,VWS V14.01,2013-04-11 05:05:00,
2013-04-11 00:10:00,35.7,17.5,30.07,East,86,2.0,11.0,47,0.00,,---,0.00,VWS V14.01,2013-04-11 05:10:00,
2013-04-11 00:15:00,35.6,16.9,30.06,ESE,114,0.0,11.0,46,0.00,,---,0.00,VWS V14.01,2013-04-11 05:15:00,
2013-04-11 00:20:00,35.6,16.9,30.06,SE,130,4.0,11.0,46,0.00,,---,0.00,VWS V14.01,2013-04-11 05:20:00,
2013-04-11 00:25:00,35.5,17.8,30.06,ESE,107,7.0,11.0,48,0.00,,---,0.00,VWS V14.01,2013-04-11 05:25:00,
2013-04-11 00:30:00,35.5,17.3,30.06,NE,49,1.0,11.0,47,0.00,,---,0.00,VWS V14.01,2013-04-11 05:30:00,
2013-04-11 00:35:00,35.4,16.7,30.06,NNW,331,0.0,6.0,46,0.00,,---,0.00,VWS V14.01,2013-04-11 05:35:00,
2013-04-11 00:40:00,35.3,16.6,30.06,East,84,5.0,9.0,46,0.00,,---,0.00,VWS V14.01,2013-04-11 05:40:00,
2013-04-11 00:45:00,35.3,17.1,30.06,SE,124,6.0,12.0,47,0.00,,---,0.00,VWS V14.01,2013-04-11 05:45:00,
2013-04-11 00:50:00,35.2,16.5,30.06,East,82,0.0,12.0,46,0.00,,---,0.00,VWS V14.01,2013-04-11 05:50:00,
2013-04-11 00:55:00,35.1,16.4,30.05,NNE,21,1.0,12.0,46,0.00,,---,0.00,VWS V14.01,2013-04-11 05:55:00,
2013-04-11 01:00:00,35.1,16.9,30.05,SSE,148,1.0,12.0,47,0.00,,---,0.00,VWS V14.01,2013-04-11 06:00:00,
2013-04-11 01:05:00,35.0,16.3,30.05,East,90,3.0,8.0,46,0.00,,---,0.00,VWS V14.01,2013-04-11 06:05:00,
2013-04-11 01:10:00,35.0,15.8,30.04,ESE,123,2.0,9.0,45,0.00,,---,0.00,VWS V14.01,2013-04-11 06:10:00,
2013-04-11 01:15:00,34.9,16.7,30.04,SE,138,2.0,9.0,47,0.00,,---,0.00,VWS V14.01,2013-04-11 06:15:00,
2013-04-11 01:20:00,34.8,16.1,30.04,NE,50,2.0,9.0,46,0.00,,---,0.00,VWS V14.01,2013-04-11 06:20:00,
2013-04-11 01:25:00,34.7,16.0,30.03,SE,135,4.0,9.0,46,0.00,,---,0.00,VWS V14.01,2013-04-11 06:25:00,
2013-04-11 01:30:00,34.6,16.0,30.03,East,86,2.0,11.0,46,0.00,,---,0.00,VWS V14.01,2013-04-11 06:30:00,
2013-04-11 01:35:00,34.6,16.0,30.04,East,88,0.0,4.0,46,0.00,,---,0.00,VWS V14.01,2013-04-11 06:35:00,
2013-04-11 01:40:00,34.5,15.9,30.04,ENE,62,3.0,8.0,46,0.00,,---,0.00,VWS V14.01,2013-04-11 06:40:00,
2013-04-11 01:45:00,34.4,15.8,30.03,ENE,63,0.0,8.0,46,0.00,,---,0.00,VWS V14.01,2013-04-11 06:45:00,
2013-04-11 01:50:00,34.4,16.3,30.03,SE,124,1.0,8.0,47,0.00,,---,0.00,VWS V14.01,2013-04-11 06:50:00,
2013-04-11 01:55:00,34.4,16.8,30.03,West,276,1.0,10.0,48,0.00,,---,0.00,VWS V14.01,2013-04-11 06:55:00,
2013-04-11 02:00:00,34.4,16.8,30.02,NE,53,4.0,11.0,48,0.00,,---,0.00,VWS V14.01,2013-04-11 07:00:00,
2013-04-11 02:05:00,34.4,16.8,30.02,East,88,6.0,6.0,48,0.00,,---,0.00,VWS V14.01,2013-04-11 07:05:00,
2013-04-11 02:10:00,34.4,17.2,30.02,ENE,78,4.0,10.0,49,0.00,,---,0.00,VWS V14.01,2013-04-11 07:10:00,
2013-04-11 02:15:00,34.3,17.1,30.01,East,101,1.0,10.0,49,0.00,,---,0.00,VWS V14.01,2013-04-11 07:15:00,
2013-04-11 02:20:00,34.2,17.5,30.01,NNE,17,4.0,10.0,50,0.00,,---,0.00,VWS V14.01,2013-04-11 07:20:00,
2013-04-11 02:25:00,34.1,17.9,30.01,SSE,154,5.0,10.0,51,0.00,,---,0.00,VWS V14.01,2013-04-11 07:25:00,
2013-04-11 02:30:00,34.0,17.8,30.01,NNW,340,7.0,10.0,51,0.00,,---,0.00,VWS V14.01,2013-04-11 07:30:00,
2013-04-11 02:35:00,33.9,18.6,30.00,ESE,105,0.0,5.0,53,0.00,,---,0.00,VWS V14.01,2013-04-11 07:35:00,
2013-04-11 02:40:00,33.7,18.4,30.01,ENE,57,0.0,6.0,53,0.00,,---,0.00,VWS V14.01,2013-04-11 07:40:00,
2013-04-11 02:45:00,33.6,19.2,29.98,ESE,121,0.0,6.0,55,0.00,,---,0.00,VWS V14.01,2013-04-11 07:45:00,
2013-04-11 02:50:00,33.5,18.6,30.01,SE,142,1.0,6.0,54,0.00,,---,0.00,VWS V14.01,2013-04-11 07:50:00,
2013-04-11 02:55:00,33.5,19.1,29.99,SSE,167,0.0,8.0,55,0.00,,---,0.00,VWS V14.01,2013-04-11 07:55:00,
2013-04-11 03:00:00,33.4,19.0,30.01,ENE,75,3.0,8.0,55,0.00,,---,0.00,VWS V14.01,2013-04-11 08:00:00,
2013-04-11 03:05:00,33.3,18.9,29.99,NNE,30,6.0,11.0,55,0.00,,---,0.00,VWS V14.01,2013-04-11 08:05:00,
2013-04-11 03:10:00,33.3,19.3,30.00,ENE,69,3.0,11.0,56,0.00,,---,0.00,VWS V14.01,2013-04-11 08:10:00,
2013-04-11 03:15:00,33.3,19.7,29.99,SE,141,2.0,11.0,57,0.00,,---,0.00,VWS V14.01,2013-04-11 08:15:00,
2013-04-11 03:20:00,33.3,19.7,29.99,ENE,71,3.0,11.0,57,0.00,,---,0.00,VWS V14.01,2013-04-11 08:20:00,
2013-04-11 03:25:00,33.3,19.7,29.99,East,89,0.0,11.0,57,0.00,,---,0.00,VWS V14.01,2013-04-11 08:25:00,
2013-04-11 03:30:00,33.3,19.7,30.00,NNE,15,2.0,11.0,57,0.00,,---,0.00,VWS V14.01,2013-04-11 08:30:00,
2013-04-11 03:35:00,33.3,19.7,29.99,East,96,4.0,7.0,57,0.00,,---,0.00,VWS V14.01,2013-04-11 08:35:00,
2013-04-11 03:40:00,33.3,20.1,29.99,NE,41,1.0,8.0,58,0.00,,---,0.00,VWS V14.01,2013-04-11 08:40:00,
2013-04-11 03:45:00,33.2,20.0,29.98,NE,51,3.0,14.0,58,0.00,,---,0.00,VWS V14.01,2013-04-11 08:45:00,
2013-04-11 03:50:00,33.2,20.0,29.98,East,82,6.0,14.0,58,0.00,,---,0.00,VWS V14.01,2013-04-11 08:50:00,
2013-04-11 03:55:00,33.2,20.4,29.97,ENE,71,1.0,14.0,59,0.00,,---,0.00,VWS V14.01,2013-04-11 08:55:00,
2013-04-11 04:00:00,33.1,20.4,29.98,ENE,65,2.0,14.0,59,0.00,,---,0.00,VWS V14.01,2013-04-11 09:00:00,
2013-04-11 04:05:00,33.1,20.7,29.97,ESE,107,0.0,6.0,60,0.00,,---,0.00,VWS V14.01,2013-04-11 09:05:00,
2013-04-11 04:10:00,33.0,20.6,29.97,NE,34,5.0,8.0,60,0.00,,---,0.00,VWS V14.01,2013-04-11 09:10:00,
2013-04-11 04:15:00,33.0,20.6,29.97,ESE,109,1.0,10.0,60,0.00,,---,0.00,VWS V14.01,2013-04-11 09:15:00,
2013-04-11 04:20:00,33.0,20.2,29.98,ESE,115,0.0,12.0,59,0.00,,---,0.00,VWS V14.01,2013-04-11 09:20:00,
2013-04-11 04:25:00,33.0,20.6,29.97,NW,318,4.0,12.0,60,0.00,,---,0.00,VWS V14.01,2013-04-11 09:25:00,
2013-04-11 04:30:00,33.0,20.6,29.98,NE,38,2.0,12.0,60,0.00,,---,0.00,VWS V14.01,2013-04-11 09:30:00,
2013-04-11 04:35:00,33.0,21.0,29.97,East,84,0.0,1.0,61,0.00,,---,0.00,VWS V14.01,2013-04-11 09:35:00,
2013-04-11 04:40:00,32.9,20.9,29.98,East,96,2.0,12.0,61,0.00,,---,0.00,VWS V14.01,2013-04-11 09:40:00,
2013-04-11 04:44:00,32.9,21.3,29.98,NE,53,1.0,12.0,62,0.00,,---,0.00,VWS V14.01,2013-04-11 09:44:00,
2013-04-11 04:49:00,32.9,21.3,29.97,NE,55,0.0,12.0,62,0.00,,---,0.00,VWS V14.01,2013-04-11 09:49:00,
2013-04-11 04:54:00,32.8,22.0,29.98,East,80,1.0,14.0,64,0.00,,---,0.00,VWS V14.01,2013-04-11 09:54:00,
2013-04-11 04:59:00,32.8,22.0,29.97,NE,36,4.0,14.0,64,0.00,,---,0.00,VWS V14.01,2013-04-11 09:59:00,
2013-04-11 05:00:00,32.7,21.9,29.98,ENE,69,9.0,14.0,64,0.00,,---,0.00,VWS V14.01,2013-04-11 10:00:00,
2013-04-11 05:04:00,32.7,22.2,29.98,ESE,122,10.0,10.0,65,0.00,,---,0.00,VWS V14.01,2013-04-11 10:04:00,
2013-04-11 05:09:00,32.6,22.5,29.97,East,96,4.0,10.0,66,0.00,,---,0.00,VWS V14.01,2013-04-11 10:09:00,
2013-04-11 05:14:00,32.6,22.1,29.97,NE,52,6.0,11.0,65,0.00,,---,0.00,VWS V14.01,2013-04-11 10:14:00,
2013-04-11 05:19:00,32.6,22.5,29.97,NE,37,0.0,11.0,66,0.00,,---,0.00,VWS V14.01,2013-04-11 10:19:00,
2013-04-11 05:24:00,32.5,22.4,29.97,SSE,150,7.0,11.0,66,0.00,,---,0.00,VWS V14.01,2013-04-11 10:24:00,
2013-04-11 05:29:00,32.5,22.8,29.96,ENE,70,11.0,11.0,67,0.00,,---,0.00,VWS V14.01,2013-04-11 10:29:00,
2013-04-11 05:30:00,32.4,22.7,29.96,WSW,247,2.0,11.0,67,0.00,,---,0.00,VWS V14.01,2013-04-11 10:30:00,
2013-04-11 05:34:00,32.4,22.7,29.96,West,265,2.0,10.0,67,0.00,,---,0.00,VWS V14.01,2013-04-11 10:34:00,
2013-04-11 05:39:00,32.4,22.7,29.96,ESE,107,2.0,11.0,67,0.00,,---,0.00,VWS V14.01,2013-04-11 10:39:00,
2013-04-11 05:44:00,32.4,23.0,29.96,ESE,111,7.0,11.0,68,0.00,,---,0.00,VWS V14.01,2013-04-11 10:44:00,
2013-04-11 05:49:00,32.4,23.0,29.95,ENE,76,1.0,11.0,68,0.00,,---,0.00,VWS V14.01,2013-04-11 10:49:00,
2013-04-11 05:54:00,32.3,22.9,29.96,East,98,11.0,11.0,68,0.00,,---,0.00,VWS V14.01,2013-04-11 10:54:00,
2013-04-11 05:59:00,32.3,22.9,29.95,ENE,74,6.0,11.0,68,0.00,,---,0.00,VWS V14.01,2013-04-11 10:59:00,
2013-04-11 06:00:00,32.3,22.9,29.95,SE,131,4.0,11.0,68,0.00,,---,0.00,VWS V14.01,2013-04-11 11:00:00,
2013-04-11 06:04:00,32.3,22.9,29.95,ESE,109,0.0,8.0,68,0.00,,---,0.00,VWS V14.01,2013-04-11 11:04:00,
2013-04-11 06:09:00,32.3,22.9,29.95,ENE,60,1.0,10.0,68,0.00,,---,0.00,VWS V14.01,2013-04-11 11:09:00,
2013-04-11 06:14:00,32.2,23.2,29.95,ENE,77,5.0,10.0,69,0.00,,---,0.00,VWS V14.01,2013-04-11 11:14:00,
2013-04-11 06:19:00,32.2,23.2,29.95,ENE,77,7.0,10.0,69,0.00,,---,0.00,VWS V14.01,2013-04-11 11:19:00,
2013-04-11 06:24:00,32.1,23.1,29.95,East,88,2.0,10.0,69,0.00,,---,0.00,VWS V14.01,2013-04-11 11:24:00,
2013-04-11 06:29:00,32.1,23.1,29.94,East,80,0.0,10.0,69,0.00,,---,0.00,VWS V14.01,2013-04-11 11:29:00,
2013-04-11 06:30:00,32.1,23.1,29.94,SSE,153,2.0,10.0,69,0.00,,---,0.00,VWS V14.01,2013-04-11 11:30:00,
2013-04-11 06:34:00,32.1,23.1,29.94,North,355,3.0,6.0,69,0.00,,---,0.00,VWS V14.01,2013-04-11 11:34:00,
2013-04-11 06:39:00,32.1,23.1,29.94,ENE,73,1.0,10.0,69,0.00,,---,0.00,VWS V14.01,2013-04-11 11:39:00,
2013-04-11 06:44:00,32.1,23.4,29.94,SSE,159,3.0,10.0,70,0.00,,---,0.00,VWS V14.01,2013-04-11 11:44:00,
2013-04-11 06:49:00,32.1,23.4,29.93,ENE,74,0.0,10.0,70,0.00,,---,0.00,VWS V14.01,2013-04-11 11:49:00,
2013-04-11 06:54:00,32.1,23.4,29.93,ENE,75,2.0,10.0,70,0.00,,---,0.00,VWS V14.01,2013-04-11 11:54:00,
2013-04-11 06:59:00,32.1,23.4,29.93,NNE,22,2.0,10.0,70,0.00,,---,0.00,VWS V14.01,2013-04-11 11:59:00,
2013-04-11 07:00:00,32.0,23.3,29.93,NE,49,5.0,10.0,70,0.00,,---,0.00,VWS V14.01,2013-04-11 12:00:00,
2013-04-11 07:04:00,32.0,23.3,29.94,ESE,115,2.0,6.0,70,0.00,,---,0.00,VWS V14.01,2013-04-11 12:04:00,
2013-04-11 07:09:00,32.0,23.3,29.94,ENE,62,1.0,11.0,70,0.00,,---,0.00,VWS V14.01,2013-04-11 12:09:00,
2013-04-11 07:14:00,32.0,23.3,29.94,ENE,71,5.0,11.0,70,0.00,,---,0.00,VWS V14.01,2013-04-11 12:14:00,
2013-04-11 07:19:00,32.0,23.7,29.94,East,101,4.0,11.0,71,0.00,,---,0.00,VWS V14.01,2013-04-11 12:19:00,
2013-04-11 07:24:00,32.1,23.8,29.94,ESE,109,2.0,11.0,71,0.00,,---,0.00,VWS V14.01,2013-04-11 12:24:00,
2013-04-11 07:29:00,32.1,23.4,29.94,NNW,336,1.0,11.0,70,0.00,,---,0.00,VWS V14.01,2013-04-11 12:29:00,
2013-04-11 07:30:00,32.1,23.8,29.94,ENE,57,8.0,11.0,71,0.00,,---,0.00,VWS V14.01,2013-04-11 12:30:00,
2013-04-11 07:34:00,32.1,23.4,29.94,ENE,60,1.0,8.0,70,0.00,,---,0.00,VWS V14.01,2013-04-11 12:34:00,
2013-04-11 07:39:00,32.1,23.8,29.94,ESE,103,0.0,8.0,71,0.00,,---,0.00,VWS V14.01,2013-04-11 12:39:00,
2013-04-11 07:44:00,32.0,23.3,29.94,East,98,0.0,8.0,70,0.00,,---,0.00,VWS V14.01,2013-04-11 12:44:00,
2013-04-11 07:49:00,32.0,24.0,29.94,East,83,4.0,8.0,72,0.00,,---,0.00,VWS V14.01,2013-04-11 12:49:00,
2013-04-11 07:54:00,32.0,23.7,29.94,NE,36,6.0,8.0,71,0.00,,---,0.00,VWS V14.01,2013-04-11 12:54:00,
2013-04-11 07:59:00,32.1,23.8,29.94,NE,56,3.0,8.0,71,0.00,,---,0.00,VWS V14.01,2013-04-11 12:59:00,
2013-04-11 08:00:00,32.1,23.8,29.94,ESE,116,0.0,10.0,71,0.00,,---,0.00,VWS V14.01,2013-04-11 13:00:00,
2013-04-11 08:04:00,32.1,23.8,29.95,ESE,115,0.0,0.0,71,0.00,,---,0.00,VWS V14.01,2013-04-11 13:04:00,
2013-04-11 08:09:00,32.1,23.8,29.95,ESE,118,7.0,11.0,71,0.00,,---,0.00,VWS V14.01,2013-04-11 13:09:00,
2013-04-11 08:14:00,32.2,23.9,29.95,SE,126,7.0,11.0,71,0.00,,---,0.00,VWS V14.01,2013-04-11 13:14:00,
2013-04-11 08:19:00,32.3,23.6,29.95,ENE,72,6.0,11.0,70,0.00,,---,0.00,VWS V14.01,2013-04-11 13:19:00,
2013-04-11 08:24:00,32.3,23.6,29.95,SE,128,4.0,11.0,70,0.00,,---,0.00,VWS V14.01,2013-04-11 13:24:00,
2013-04-11 08:29:00,32.3,23.6,29.95,ESE,113,5.0,11.0,70,0.00,,---,0.00,VWS V14.01,2013-04-11 13:29:00,
2013-04-11 08:30:00,32.3,23.6,29.95,SSE,159,2.0,11.0,70,0.00,,---,0.00,VWS V14.01,2013-04-11 13:30:00,
2013-04-11 08:34:00,32.3,24.0,29.94,East,82,0.0,4.0,71,0.00,,---,0.00,VWS V14.01,2013-04-11 13:34:00,
2013-04-11 08:39:00,32.3,24.0,29.94,East,88,1.0,7.0,71,0.00,,---,0.00,VWS V14.01,2013-04-11 13:39:00,
2013-04-11 08:44:00,32.3,24.0,29.93,East,87,1.0,7.0,71,0.00,,---,0.00,VWS V14.01,2013-04-11 13:44:00,
2013-04-11 08:49:00,32.3,24.0,29.92,NE,45,5.0,10.0,71,0.00,,---,0.00,VWS V14.01,2013-04-11 13:49:00,
2013-04-11 08:55:00,32.3,23.6,29.92,East,79,2.0,10.0,70,0.00,,---,0.00,VWS V14.01,2013-04-11 13:55:00,
2013-04-11 09:00:00,32.3,23.3,29.91,SSE,149,9.0,14.0,69,0.00,,---,0.00,VWS V14.01,2013-04-11 14:00:00,
2013-04-11 09:05:00,32.3,23.6,29.91,East,80,6.0,13.0,70,0.00,,---,0.00,VWS V14.01,2013-04-11 14:05:00,
2013-04-11 09:10:00,32.3,23.3,29.91,NW,326,1.0,16.0,69,0.00,,---,0.00,VWS V14.01,2013-04-11 14:10:00,
2013-04-11 09:15:00,32.3,23.6,29.91,East,101,1.0,16.0,70,0.00,,---,0.00,VWS V14.01,2013-04-11 14:15:00,
2013-04-11 09:20:00,32.3,23.6,29.91,ENE,57,1.0,16.0,70,0.00,,---,0.00,VWS V14.01,2013-04-11 14:20:00,
2013-04-11 09:25:00,32.3,23.3,29.90,East,93,4.0,16.0,69,0.00,,---,0.00,VWS V14.01,2013-04-11 14:25:00,
2013-04-11 09:30:00,32.3,23.6,29.90,East,101,7.0,16.0,70,0.00,,---,0.00,VWS V14.01,2013-04-11 14:30:00,
2013-04-11 09:35:00,32.0,24.3,29.89,SE,126,1.0,7.0,73,0.00,,---,0.00,VWS V14.01,2013-04-11 14:35:00,
2013-04-11 09:40:00,31.6,24.6,29.89,NNW,344,6.0,15.0,75,0.00,,---,0.00,VWS V14.01,2013-04-11 14:40:00,
2013-04-11 09:45:00,30.6,26.1,29.90,ENE,69,2.0,15.0,83,0.00,,---,0.00,VWS V14.01,2013-04-11 14:45:00,
2013-04-11 09:50:00,29.8,26.1,29.91,ENE,76,2.0,15.0,86,0.00,,---,0.00,VWS V14.01,2013-04-11 14:50:00,
2013-04-11 09:55:00,29.3,26.2,29.91,East,86,3.0,15.0,88,0.00,,---,0.00,VWS V14.01,2013-04-11 14:55:00,
2013-04-11 10:00:00,29.1,26.5,29.91,ESE,110,1.0,15.0,90,0.00,,---,0.00,VWS V14.01,2013-04-11 15:00:00,
2013-04-11 10:05:00,29.0,26.7,29.91,ENE,57,0.0,4.0,91,0.00,,---,0.00,VWS V14.01,2013-04-11 15:05:00,
2013-04-11 10:10:00,29.0,26.7,29.91,East,82,8.0,8.0,91,0.00,,---,0.00,VWS V14.01,2013-04-11 15:10:00,
2013-04-11 10:15:00,28.9,26.6,29.91,NNE,30,6.0,9.0,91,0.00,,---,0.00,VWS V14.01,2013-04-11 15:15:00,
2013-04-11 10:20:00,28.9,26.9,29.91,ENE,78,0.0,10.0,92,0.00,,---,0.00,VWS V14.01,2013-04-11 15:20:00,
2013-04-11 10:25:00,28.9,26.9,29.91,NE,39,4.0,10.0,92,0.00,,---,0.00,VWS V14.01,2013-04-11 15:25:00,
2013-04-11 10:30:00,28.9,26.9,29.89,ENE,71,0.0,10.0,92,0.00,,---,0.00,VWS V14.01,2013-04-11 15:30:00,
2013-04-11 10:35:00,28.9,26.9,29.89,ESE,107,7.0,16.0,92,0.00,,---,0.00,VWS V14.01,2013-04-11 15:35:00,
2013-04-11 10:40:00,28.8,26.8,29.89,ENE,61,5.0,16.0,92,0.00,,---,0.00,VWS V14.01,2013-04-11 15:40:00,
2013-04-11 10:45:00,28.8,27.0,29.89,NE,49,2.0,16.0,93,0.00,,---,0.00,VWS V14.01,2013-04-11 15:45:00,
2013-04-11 10:50:00,28.8,27.0,29.88,SE,140,2.0,16.0,93,0.00,,---,0.00,VWS V14.01,2013-04-11 15:50:00,
2013-04-11 10:55:00,28.8,27.0,29.89,East,99,0.0,16.0,93,0.00,,---,0.00,VWS V14.01,2013-04-11 15:55:00,
2013-04-11 11:00:00,28.9,27.1,29.89,SSE,154,3.0,16.0,93,0.00,,---,0.00,VWS V14.01,2013-04-11 16:00:00,
2013-04-11 11:05:00,29.0,27.2,29.90,ESE,118,1.0,6.0,93,0.00,,---,0.00,VWS V14.01,2013-04-11 16:05:00,
2013-04-11 11:10:00,29.1,27.3,29.91,ENE,67,1.0,6.0,93,0.00,,---,0.00,VWS V14.01,2013-04-11 16:10:00,
2013-04-11 11:15:00,29.2,27.4,29.91,ESE,116,2.0,9.0,93,0.00,,---,0.00,VWS V14.01,2013-04-11 16:15:00,
2013-04-11 11:20:00,29.2,27.4,29.91,SE,144,2.0,9.0,93,0.00,,---,0.00,VWS V14.01,2013-04-11 16:20:00,
2013-04-11 11:25:00,29.3,27.5,29.91,ENE,67,2.0,9.0,93,0.00,,---,0.00,VWS V14.01,2013-04-11 16:25:00,
2013-04-11 11:30:00,29.5,27.7,29.91,ENE,76,1.0,9.0,93,0.00,,---,0.00,VWS V14.01,2013-04-11 16:30:00,
2013-04-11 11:35:00,29.6,27.8,29.91,East,98,1.0,6.0,93,0.00,,---,0.00,VWS V14.01,2013-04-11 16:35:00,
2013-04-11 11:40:00,29.7,27.9,29.92,NE,48,7.0,7.0,93,0.00,,---,0.00,VWS V14.01,2013-04-11 16:40:00,
2013-04-11 11:45:00,29.8,28.0,29.91,ESE,102,1.0,7.0,93,0.00,,---,0.00,VWS V14.01,2013-04-11 16:45:00,
2013-04-11 11:50:00,30.0,28.2,29.91,NNE,17,4.0,7.0,93,0.00,,---,0.00,VWS V14.01,2013-04-11 16:50:00,
2013-04-11 11:55:00,30.3,28.8,29.91,NW,310,0.0,7.0,94,0.00,,---,0.00,VWS V14.01,2013-04-11 16:55:00,
2013-04-11 12:00:00,30.3,28.8,29.91,SSE,161,2.0,7.0,94,0.00,,---,0.00,VWS V14.01,2013-04-11 17:00:00,
2013-04-11 12:05:00,30.2,28.7,29.91,ESE,117,7.0,7.0,94,0.00,,---,0.00,VWS V14.01,2013-04-11 17:05:00,
2013-04-11 12:10:00,30.1,28.6,29.91,SE,132,1.0,7.0,94,0.00,,---,0.00,VWS V14.01,2013-04-11 17:10:00,
2013-04-11 12:15:00,30.2,28.7,29.91,ESE,103,2.0,7.0,94,0.00,,---,0.00,VWS V14.01,2013-04-11 17:15:00,
2013-04-11 12:20:00,30.2,28.7,29.91,ESE,105,7.0,7.0,94,0.00,,---,0.00,VWS V14.01,2013-04-11 17:20:00,
2013-04-11 12:25:00,30.2,28.7,29.91,ENE,75,2.0,8.0,94,0.00,,---,0.00,VWS V14.01,2013-04-11 17:25:00,
2013-04-11 12:30:00,30.3,28.8,29.91,NE,43,1.0,8.0,94,0.00,,---,0.00,VWS V14.01,2013-04-11 17:30:00,
2013-04-11 12:35:00,30.4,28.9,29.91,NE,47,0.0,8.0,94,0.00,,---,0.00,VWS V14.01,2013-04-11 17:35:00,
2013-04-11 12:40:00,30.4,28.9,29.91,ESE,117,4.0,9.0,94,0.00,,---,0.00,VWS V14.01,2013-04-11 17:40:00,
2013-04-11 12:45:00,30.4,28.9,29.92,NW,316,4.0,11.0,94,0.00,,---,0.00,VWS V14.01,2013-04-11 17:45:00,
2013-04-11 12:50:00,30.4,28.6,29.91,SE,140,3.0,11.0,93,0.00,,---,0.00,VWS V14.01,2013-04-11 17:50:00,
2013-04-11 12:55:00,30.6,28.8,29.91,SE,125,0.0,11.0,93,0.00,,---,0.00,VWS V14.01,2013-04-11 17:55:00,
2013-04-11 13:00:00,30.6,28.8,29.90,NE,51,0.0,11.0,93,0.00,,---,0.00,VWS V14.01,2013-04-11 18:00:00,
2013-04-11 13:05:00,30.7,28.9,29.90,ENE,69,1.0,9.0,93,0.00,,---,0.00,VWS V14.01,2013-04-11 18:05:00,
2013-04-11 13:10:00,30.6,28.8,29.90,ENE,74,4.0,9.0,93,0.00,,---,0.00,VWS V14.01,2013-04-11 18:10:00,
2013-04-11 13:15:00,30.7,28.9,29.90,ENE,65,4.0,9.0,93,0.00,,---,0.00,VWS V14.01,2013-04-11 18:15:00,
2013-04-11 13:20:00,30.8,29.0,29.90,ENE,76,3.0,9.0,93,0.00,,---,0.00,VWS V14.01,2013-04-11 18:20:00,
2013-04-11 13:25:00,30.8,29.0,29.90,East,98,1.0,9.0,93,0.00,,---,0.00,VWS V14.01,2013-04-11 18:25:00,
2013-04-11 13:30:00,30.9,29.1,29.90,SSE,153,4.0,9.0,93,0.00,,---,0.00,VWS V14.01,2013-04-11 18:30:00,
2013-04-11 13:35:00,30.8,29.0,29.90,ESE,112,1.0,8.0,93,0.00,,---,0.00,VWS V14.01,2013-04-11 18:35:00,
2013-04-11 13:40:00,30.9,29.1,29.89,NE,48,5.0,9.0,93,0.00,,---,0.00,VWS V14.01,2013-04-11 18:40:00,
2013-04-11 13:45:00,31.0,29.2,29.89,ESE,111,0.0,9.0,93,0.00,,---,0.00,VWS V14.01,2013-04-11 18:45:00,
2013-04-11 13:50:00,31.1,29.3,29.89,ENE,63,4.0,9.0,93,0.00,,---,0.00,VWS V14.01,2013-04-11 18:50:00,
2013-04-11 13:55:00,31.2,29.4,29.89,East,101,6.0,9.0,93,0.00,,---,0.00,VWS V14.01,2013-04-11 18:55:00,
2013-04-11 14:00:00,31.3,29.5,29.89,ENE,57,2.0,9.0,93,0.00,,---,0.00,VWS V14.01,2013-04-11 19:00:00,
2013-04-11 14:05:00,31.4,29.6,29.89,East,99,0.0,7.0,93,0.01,,---,0.01,VWS V14.01,2013-04-11 19:05:00,
2013-04-11 14:10:00,31.3,29.5,29.89,East,101,4.0,10.0,93,0.01,,---,0.01,VWS V14.01,2013-04-11 19:10:00,
2013-04-11 14:15:00,31.2,29.4,29.89,ENE,72,2.0,10.0,93,0.01,,---,0.01,VWS V14.01,2013-04-11 19:15:00,
2013-04-11 14:20:00,31.3,29.5,29.89,WSW,250,4.0,10.0,93,0.01,,---,0.01,VWS V14.01,2013-04-11 19:20:00,
2013-04-11 14:25:00,31.4,29.6,29.88,ESE,119,0.0,10.0,93,0.01,,---,0.01,VWS V14.01,2013-04-11 19:25:00,
2013-04-11 14:30:00,31.4,29.6,29.88,East,95,7.0,13.0,93,0.01,,---,0.01,VWS V14.01,2013-04-11 19:30:00,
2013-04-11 14:35:00,31.3,29.5,29.88,NE,46,0.0,6.0,93,0.01,,---,0.01,VWS V14.01,2013-04-11 19:35:00,
2013-04-11 14:40:00,31.3,29.5,29.88,East,88,2.0,10.0,93,0.01,,---,0.01,VWS V14.01,2013-04-11 19:40:00,
2013-04-11 14:45:00,31.4,29.6,29.88,ESE,117,3.0,10.0,93,0.01,,---,0.01,VWS V14.01,2013-04-11 19:45:00,
2013-04-11 14:50:00,31.4,29.6,29.87,ESE,112,4.0,12.0,93,0.02,,---,0.02,VWS V14.01,2013-04-11 19:50:00,
2013-04-11 14:55:00,31.3,29.5,29.87,East,94,2.0,12.0,93,0.02,,---,0.02,VWS V14.01,2013-04-11 19:55:00,
2013-04-11 15:00:00,31.3,29.5,29.86,North,360,1.0,12.0,93,0.02,,---,0.02,VWS V14.01,2013-04-11 20:00:00,
2013-04-11 15:05:00,31.4,29.6,29.86,East,90,2.0,7.0,93,0.02,,---,0.02,VWS V14.01,2013-04-11 20:05:00,
2013-04-11 15:10:00,31.5,29.5,29.86,East,88,5.0,10.0,92,0.03,,---,0.03,VWS V14.01,2013-04-11 20:10:00,
2013-04-11 15:15:00,31.5,29.5,29.86,East,86,1.0,11.0,92,0.03,,---,0.03,VWS V14.01,2013-04-11 20:15:00,
2013-04-11 15:20:00,31.5,29.5,29.86,ENE,68,5.0,11.0,92,0.03,,---,0.03,VWS V14.01,2013-04-11 20:20:00,
2013-04-11 15:25:00,31.4,29.4,29.86,ESE,122,5.0,11.0,92,0.03,,---,0.03,VWS V14.01,2013-04-11 20:25:00,
2013-04-11 15:30:00,31.4,29.4,29.85,ENE,61,2.0,12.0,92,0.03,,---,0.03,VWS V14.01,2013-04-11 20:30:00,
2013-04-11 15:35:00,31.4,29.4,29.86,ESE,107,8.0,11.0,92,0.03,,---,0.04,VWS V14.01,2013-04-11 20:35:00,
2013-04-11 15:40:00,31.4,29.1,29.86,East,87,6.0,11.0,91,0.03,,---,0.04,VWS V14.01,2013-04-11 20:40:00,
2013-04-11 15:45:00,31.4,29.1,29.86,ENE,76,9.0,13.0,91,0.03,,---,0.04,VWS V14.01,2013-04-11 20:45:00,
2013-04-11 15:50:00,31.4,29.1,29.86,NW,315,1.0,13.0,91,0.03,,---,0.04,VWS V14.01,2013-04-11 20:50:00,
2013-04-11 15:55:00,31.4,29.1,29.86,East,88,5.0,13.0,91,0.04,,---,0.05,VWS V14.01,2013-04-11 20:55:00,
2013-04-11 16:00:00,31.4,29.1,29.86,North,355,1.0,13.0,91,0.04,,---,0.05,VWS V14.01,2013-04-11 21:00:00,
2013-04-11 16:05:00,31.4,29.1,29.86,ENE,77,5.0,7.0,91,0.03,,---,0.05,VWS V14.01,2013-04-11 21:05:00,
2013-04-11 16:10:00,31.3,29.0,29.86,North,355,5.0,12.0,91,0.03,,---,0.05,VWS V14.01,2013-04-11 21:10:00,
2013-04-11 16:15:00,31.2,28.9,29.86,NNW,348,8.0,12.0,91,0.03,,---,0.05,VWS V14.01,2013-04-11 21:15:00,
2013-04-11 16:20:00,31.1,28.5,29.86,ENE,67,1.0,12.0,90,0.03,,---,0.05,VWS V14.01,2013-04-11 21:20:00,
2013-04-11 16:25:00,31.2,28.6,29.86,ESE,111,4.0,12.0,90,0.03,,---,0.05,VWS V14.01,2013-04-11 21:25:00,
2013-04-11 16:30:00,31.1,28.5,29.86,SSE,147,5.0,12.0,90,0.03,,---,0.05,VWS V14.01,2013-04-11 21:30:00,
2013-04-11 16:35:00,31.0,28.4,29.86,North,11,0.0,6.0,90,0.03,,---,0.06,VWS V14.01,2013-04-11 21:35:00,
2013-04-11 16:40:00,31.1,28.8,29.86,North,355,2.0,7.0,91,0.03,,---,0.06,VWS V14.01,2013-04-11 21:40:00,
2013-04-11 16:45:00,31.0,28.4,29.86,ESE,123,4.0,8.0,90,0.03,,---,0.06,VWS V14.01,2013-04-11 21:45:00,
2013-04-11 16:50:00,31.0,28.4,29.87,ESE,117,2.0,8.0,90,0.03,,---,0.06,VWS V14.01,2013-04-11 21:50:00,
2013-04-11 16:55:00,31.0,28.4,29.87,ESE,121,5.0,8.0,90,0.03,,---,0.06,VWS V14.01,2013-04-11 21:55:00,
2013-04-11 17:00:00,30.9,28.3,29.87,ESE,109,4.0,8.0,90,0.03,,---,0.06,VWS V14.01,2013-04-11 22:00:00,
2013-04-11 17:05:00,30.8,28.2,29.87,SE,127,1.0,6.0,90,0.01,,---,0.06,VWS V14.01,2013-04-11 22:05:00,
2013-04-11 17:10:00,30.8,28.5,29.87,ENE,75,1.0,8.0,91,0.01,,---,0.06,VWS V14.01,2013-04-11 22:10:00,
2013-04-11 17:15:00,30.7,28.4,29.87,ESE,114,0.0,10.0,91,0.01,,---,0.06,VWS V14.01,2013-04-11 22:15:00,
2013-04-11 17:20:00,30.7,28.4,29.87,SE,139,1.0,10.0,91,0.01,,---,0.06,VWS V14.01,2013-04-11 22:20:00,
2013-04-11 17:25:00,30.8,28.5,29.87,ENE,75,5.0,10.0,91,0.01,,---,0.06,VWS V14.01,2013-04-11 22:25:00,
2013-04-11 17:30:00,30.8,28.5,29.88,NNE,18,5.0,10.0,91,0.01,,---,0.06,VWS V14.01,2013-04-11 22:30:00,
2013-04-11 17:35:00,30.8,28.5,29.87,SE,146,0.0,6.0,91,0.01,,---,0.07,VWS V14.01,2013-04-11 22:35:00,
2013-04-11 17:40:00,30.8,28.8,29.87,ESE,113,0.0,10.0,92,0.01,,---,0.07,VWS V14.01,2013-04-11 22:40:00,
2013-04-11 17:45:00,30.8,28.8,29.87,ENE,74,1.0,10.0,92,0.01,,---,0.07,VWS V14.01,2013-04-11 22:45:00,
2013-04-11 17:50:00,30.7,28.7,29.87,ESE,113,2.0,10.0,92,0.01,,---,0.07,VWS V14.01,2013-04-11 22:50:00,
2013-04-11 17:55:00,30.6,28.6,29.88,SE,132,5.0,10.0,92,0.01,,---,0.07,VWS V14.01,2013-04-11 22:55:00,
2013-04-11 18:00:00,30.5,28.2,29.88,SE,133,2.0,10.0,91,0.01,,---,0.07,VWS V14.01,2013-04-11 23:00:00,
2013-04-11 18:05:00,30.4,28.1,29.88,North,360,2.0,10.0,91,0.01,,---,0.07,VWS V14.01,2013-04-11 23:05:00,
2013-04-11 18:10:00,30.3,28.3,29.88,ENE,72,0.0,10.0,92,0.01,,---,0.07,VWS V14.01,2013-04-11 23:10:00,
2013-04-11 18:15:00,30.3,28.3,29.88,SE,125,0.0,10.0,92,0.01,,---,0.07,VWS V14.01,2013-04-11 23:15:00,
2013-04-11 18:20:00,30.3,28.3,29.88,ESE,113,2.0,10.0,92,0.01,,---,0.07,VWS V14.01,2013-04-11 23:20:00,
2013-04-11 18:25:00,30.2,28.2,29.88,NNE,16,2.0,10.0,92,0.01,,---,0.07,VWS V14.01,2013-04-11 23:25:00,
2013-04-11 18:30:00,30.2,28.2,29.88,ENE,61,5.0,10.0,92,0.01,,---,0.07,VWS V14.01,2013-04-11 23:30:00,
2013-04-11 18:35:00,30.2,28.2,29.89,ENE,69,4.0,6.0,92,0.00,,---,0.07,VWS V14.01,2013-04-11 23:35:00,
2013-04-11 18:40:00,30.1,28.1,29.89,ENE,65,0.0,6.0,92,0.00,,---,0.07,VWS V14.01,2013-04-11 23:40:00,
2013-04-11 18:45:00,30.2,28.2,29.89,NE,45,1.0,6.0,92,0.00,,---,0.07,VWS V14.01,2013-04-11 23:45:00,
2013-04-11 18:50:00,30.2,28.2,29.89,ENE,61,3.0,10.0,92,0.00,,---,0.07,VWS V14.01,2013-04-11 23:50:00,
2013-04-11 18:55:00,30.1,28.1,29.89,ESE,113,3.0,10.0,92,0.00,,---,0.07,VWS V14.01,2013-04-11 23:55:00,
2013-04-11 19:00:00,30.1,28.1,29.88,ESE,118,0.0,10.0,92,0.00,,---,0.07,VWS V14.01,2013-04-12 00:00:00,
2013-04-11 19:05:00,30.1,28.1,29.88,ENE,57,1.0,2.0,92,0.00,,---,0.07,VWS V14.01,2013-04-12 00:05:00,
2013-04-11 19:10:00,30.0,28.0,29.88,ESE,105,2.0,7.0,92,0.00,,---,0.07,VWS V14.01,2013-04-12 00:10:00,
2013-04-11 19:15:00,30.0,28.0,29.88,NE,48,1.0,7.0,92,0.00,,---,0.07,VWS V14.01,2013-04-12 00:15:00,
2013-04-11 19:20:00,29.9,27.9,29.88,East,96,0.0,9.0,92,0.00,,---,0.07,VWS V14.01,2013-04-12 00:20:00,
2013-04-11 19:25:00,29.8,27.8,29.88,ENE,65,0.0,9.0,92,0.00,,---,0.07,VWS V14.01,2013-04-12 00:25:00,
2013-04-11 19:30:00,29.7,27.7,29.88,NNE,30,2.0,12.0,92,0.00,,---,0.07,VWS V14.01,2013-04-12 00:30:00,
2013-04-11 19:35:00,29.6,27.3,29.88,East,80,4.0,9.0,91,0.00,,---,0.07,VWS V14.01,2013-04-12 00:35:00,
2013-04-11 19:40:00,29.4,27.1,29.88,East,83,1.0,9.0,91,0.00,,---,0.07,VWS V14.01,2013-04-12 00:40:00,
2013-04-11 19:45:00,29.3,27.0,29.87,East,84,0.0,11.0,91,0.00,,---,0.07,VWS V14.01,2013-04-12 00:45:00,
2013-04-11 19:50:00,29.2,26.9,29.87,East,92,1.0,11.0,91,0.00,,---,0.07,VWS V14.01,2013-04-12 00:50:00,
2013-04-11 19:55:00,29.2,26.9,29.87,ESE,111,2.0,11.0,91,0.00,,---,0.07,VWS V14.01,2013-04-12 00:55:00,
2013-04-11 20:00:00,29.1,26.8,29.87,NNE,24,4.0,11.0,91,0.00,,---,0.07,VWS V14.01,2013-04-12 01:00:00,
2013-04-11 20:05:00,29.0,26.7,29.87,East,90,2.0,5.0,91,0.00,,---,0.07,VWS V14.01,2013-04-12 01:05:00,
2013-04-11 20:10:00,29.1,26.8,29.87,SE,127,2.0,5.0,91,0.00,,---,0.07,VWS V14.01,2013-04-12 01:10:00,
2013-04-11 20:15:00,29.1,26.8,29.87,SE,128,4.0,8.0,91,0.00,,---,0.07,VWS V14.01,2013-04-12 01:15:00,
2013-04-11 20:20:00,29.0,26.7,29.87,East,96,2.0,8.0,91,0.00,,---,0.07,VWS V14.01,2013-04-12 01:20:00,
2013-04-11 20:25:00,29.0,26.7,29.87,East,82,1.0,8.0,91,0.00,,---,0.07,VWS V14.01,2013-04-12 01:25:00,
2013-04-11 20:30:00,29.0,26.7,29.87,SE,128,0.0,8.0,91,0.00,,---,0.07,VWS V14.01,2013-04-12 01:30:00,
2013-04-11 20:35:00,28.9,26.6,29.87,NE,50,0.0,6.0,91,0.00,,---,0.07,VWS V14.01,2013-04-12 01:35:00,
2013-04-11 20:40:00,28.8,26.5,29.87,ENE,57,1.0,6.0,91,0.00,,---,0.07,VWS V14.01,2013-04-12 01:40:00,
2013-04-11 20:45:00,28.8,26.5,29.87,ESE,102,1.0,6.0,91,0.00,,---,0.07,VWS V14.01,2013-04-12 01:45:00,
2013-04-11 20:50:00,28.8,26.5,29.87,NNW,345,1.0,6.0,91,0.00,,---,0.07,VWS V14.01,2013-04-12 01:50:00,
2013-04-11 20:55:00,28.7,26.4,29.87,ENE,74,0.0,7.0,91,0.00,,---,0.07,VWS V14.01,2013-04-12 01:55:00,
2013-04-11 21:00:00,28.7,26.4,29.87,ESE,122,0.0,7.0,91,0.00,,---,0.07,VWS V14.01,2013-04-12 02:00:00,
2013-04-11 21:05:00,28.6,26.3,29.88,ESE,112,1.0,5.0,91,0.00,,---,0.07,VWS V14.01,2013-04-12 02:05:00,
2013-04-11 21:10:00,28.6,26.3,29.88,East,97,0.0,5.0,91,0.00,,---,0.07,VWS V14.01,2013-04-12 02:10:00,
2013-04-11 21:15:00,28.5,26.2,29.88,East,85,4.0,5.0,91,0.00,,---,0.07,VWS V14.01,2013-04-12 02:15:00,
2013-04-11 21:20:00,28.5,26.0,29.88,NNE,30,3.0,7.0,90,0.00,,---,0.07,VWS V14.01,2013-04-12 02:20:00,
2013-04-11 21:25:00,28.5,26.0,29.88,East,101,5.0,7.0,90,0.00,,---,0.07,VWS V14.01,2013-04-12 02:25:00,
2013-04-11 21:30:00,28.5,26.0,29.88,ENE,70,0.0,9.0,90,0.00,,---,0.07,VWS V14.01,2013-04-12 02:30:00,
2013-04-11 21:35:00,28.5,26.0,29.89,NE,42,0.0,2.0,90,0.00,,---,0.07,VWS V14.01,2013-04-12 02:35:00,
2013-04-11 21:40:00,28.4,25.9,29.89,SE,138,0.0,6.0,90,0.00,,---,0.07,VWS V14.01,2013-04-12 02:40:00,
2013-04-11 21:45:00,28.4,25.9,29.89,ENE,63,0.0,9.0,90,0.00,,---,0.07,VWS V14.01,2013-04-12 02:45:00,
2013-04-11 21:50:00,28.4,25.9,29.89,ENE,71,0.0,9.0,90,0.00,,---,0.07,VWS V14.01,2013-04-12 02:50:00,
2013-04-11 21:55:00,28.4,25.9,29.89,East,80,4.0,9.0,90,0.00,,---,0.07,VWS V14.01,2013-04-12 02:55:00,
2013-04-11 22:00:00,28.4,25.9,29.89,East,82,1.0,9.0,90,0.00,,---,0.07,VWS V14.01,2013-04-12 03:00:00,
2013-04-11 22:05:00,28.4,25.9,29.89,East,86,0.0,5.0,90,0.00,,---,0.07,VWS V14.01,2013-04-12 03:05:00,
2013-04-11 22:10:00,28.3,25.8,29.89,ENE,59,2.0,5.0,90,0.00,,---,0.07,VWS V14.01,2013-04-12 03:10:00,
2013-04-11 22:15:00,28.3,26.0,29.89,NNE,24,5.0,6.0,91,0.00,,---,0.07,VWS V14.01,2013-04-12 03:15:00,
2013-04-11 22:20:00,28.3,25.8,29.89,East,97,2.0,7.0,90,0.00,,---,0.07,VWS V14.01,2013-04-12 03:20:00,
2013-04-11 22:25:00,28.3,26.0,29.89,East,101,4.0,7.0,91,0.00,,---,0.07,VWS V14.01,2013-04-12 03:25:00,
2013-04-11 22:30:00,28.3,26.0,29.89,ENE,74,1.0,7.0,91,0.00,,---,0.07,VWS V14.01,2013-04-12 03:30:00,
2013-04-11 22:35:00,28.3,26.0,29.89,ESE,119,1.0,2.0,91,0.00,,---,0.07,VWS V14.01,2013-04-12 03:35:00,
2013-04-11 22:40:00,28.3,26.0,29.89,East,80,1.0,8.0,91,0.00,,---,0.07,VWS V14.01,2013-04-12 03:40:00,
2013-04-11 22:45:00,28.3,26.0,29.89,ENE,60,2.0,8.0,91,0.00,,---,0.07,VWS V14.01,2013-04-12 03:45:00,
2013-04-11 22:50:00,28.4,25.9,29.89,NE,53,2.0,8.0,90,0.00,,---,0.07,VWS V14.01,2013-04-12 03:50:00,
2013-04-11 22:55:00,28.4,25.9,29.89,NNW,334,0.0,8.0,90,0.00,,---,0.07,VWS V14.01,2013-04-12 03:55:00,
2013-04-11 23:00:00,28.4,25.9,29.89,NW,325,1.0,8.0,90,0.00,,---,0.07,VWS V14.01,2013-04-12 04:00:00,
2013-04-11 23:05:00,28.4,25.9,29.88,NE,38,0.0,6.0,90,0.00,,---,0.07,VWS V14.01,2013-04-12 04:05:00,
2013-04-11 23:10:00,28.4,25.9,29.88,NE,36,0.0,6.0,90,0.00,,---,0.07,VWS V14.01,2013-04-12 04:10:00,
2013-04-11 23:15:00,28.4,25.9,29.88,ESE,113,5.0,6.0,90,0.00,,---,0.07,VWS V14.01,2013-04-12 04:15:00,
2013-04-11 23:20:00,28.4,25.9,29.88,ENE,76,0.0,6.0,90,0.00,,---,0.07,VWS V14.01,2013-04-12 04:20:00,
2013-04-11 23:25:00,28.4,25.9,29.88,North,9,0.0,6.0,90,0.00,,---,0.07,VWS V14.01,2013-04-12 04:25:00,
2013-04-11 23:30:00,28.4,25.9,29.88,ENE,64,0.0,6.0,90,0.00,,---,0.07,VWS V14.01,2013-04-12 04:30:00,
2013-04-11 23:35:00,28.5,26.0,29.88,North,9,2.0,4.0,90,0.00,,---,0.07,VWS V14.01,2013-04-12 04:35:00,
2013-04-11 23:40:00,28.5,26.0,29.87,ENE,58,5.0,7.0,90,0.00,,---,0.07,VWS V14.01,2013-04-12 04:40:00,
2013-04-11 23:45:00,28.5,26.0,29.87,East,97,1.0,7.0,90,0.00,,---,0.07,VWS V14.01,2013-04-12 04:45:00,
2013-04-11 23:50:00,28.5,26.0,29.87,East,90,0.0,7.0,90,0.00,,---,0.07,VWS V14.01,2013-04-12 04:50:00,
2013-04-11 23:55:00,28.6,26.0,29.87,NE,56,0.0,7.0,90,0.00,,---,0.07,VWS V14.01,2013-04-12 04:55:00,